(495579) = 2014 XA23

Discovered at Mount Lemmon on 2008-10-06 by Mt. Lemmon Survey.

Orbit

Orbit type: Main Belt

Note: WebGL enabled browser required.

epoch2022-01-21.0
epoch JD2459600.5
perihelion date2020-04-04.31640
perihelion JD2458943.81640
argument of perihelion (°)326.34508
ascending node (°)87.27970
inclination (°)7.60074
eccentricity0.1656551
perihelion distance (AU)2.6225978
Tisserand w.r.t. Jupiter3.2
ΔV w.r.t. Earth (km/sec)10.4
semimajor axis (AU)3.1433017
mean anomaly (°)116.13976
mean daily motion (°/day)0.17685800
aphelion distance (AU)3.664
period (years)5.57
P-vector [x]0.58820700
P-vector [y]0.76808100
P-vector [z]0.25310886
Q-vector [x]-0.79784509
Q-vector [y]0.50001817
Q-vector [z]0.33678634
absolute magnitude16.38
phase slope0.15
uncertainty0
referenceMPO 700840
observations used167
oppositions9
arc length (days)8840
first opposition used1998
last opposition used2022
residual rms (arc-secs)0.74
perturbers coarse indicatorM-v
perturbers precise indicator003Ek
first observation date used1998-01-26.0
last observation date used2022-04-10.0
computer namePan
Minimum Orbit Intersection Distances (in AU)
for orbit epoch: 2458200.5, reference: MPO409873
Mercury2.31302
Venus1.90484
Earth1.64036
Mars1.1189
Jupiter1.70572
Saturn6.13361
Uranus14.7534
Neptune26.5953

Observations

169 total observations over interval: 1998 01 26.08831 – 2022 04 10.434003
These data are available for download (format description).

Date (UT) J2000 RA J2000 Dec Magn Location Ref
1998 01 26.08831 03 13 20.51 +15 10 50.7 21.4 V 691 – Steward Observatory, Kitt Peak-Spacewatch MPS 871566
1998 01 26.11077 03 13 21.24 +15 10 57.5 21.4 V 691 – Steward Observatory, Kitt Peak-Spacewatch MPS 871566
1998 01 26.13289 03 13 21.97 +15 11 04.9 21.4 V 691 – Steward Observatory, Kitt Peak-Spacewatch MPS 871566
2008 10 06.37963 02 14 41.74 +02 24 07.1 20.1 V G96 – Mt. Lemmon Survey MPS 615171
2008 10 06.38906 02 14 41.38 +02 24 04.8 20.1 V G96 – Mt. Lemmon Survey MPS 615171
2008 10 06.39847 02 14 40.99 +02 24 03.0 19.9 V G96 – Mt. Lemmon Survey MPS 615171
2008 10 06.40789 02 14 40.59 +02 24 00.9 20.1 V G96 – Mt. Lemmon Survey MPS 615171
2008 10 29.29062 01 57 12.67 +01 14 25.2 20.3 V 703 – Catalina Sky Survey MPS 615171
2008 10 29.29736 01 57 12.31 +01 14 23.4 19.6 V 703 – Catalina Sky Survey MPS 615171
2008 10 29.30406 01 57 11.98 +01 14 22.7 20.5 V 703 – Catalina Sky Survey MPS 615171
2008 10 29.31062 01 57 11.55 +01 14 21.2 19.8 V 703 – Catalina Sky Survey MPS 615171
2010 01 15.37206 09 41 09.63 +22 00 47.8 21.1 V G96 – Mt. Lemmon Survey MPS 871566
2010 01 15.38220 09 41 09.24 +22 00 52.2 21.4 V G96 – Mt. Lemmon Survey MPS 871566
2010 01 15.39243 09 41 08.88 +22 00 54.8 20.4 V G96 – Mt. Lemmon Survey MPS 871566
2010 01 15.40255 09 41 08.48 +22 00 58.6 20.8 V G96 – Mt. Lemmon Survey MPS 871566
2014 12 11.22562 05 05 22.88 +20 46 45.4 19.7 V G96 – Mt. Lemmon Survey MPS 553607
2014 12 11.23074 05 05 22.60 +20 46 46.0 19.9 V G96 – Mt. Lemmon Survey MPS 553607
2014 12 11.23586 05 05 22.33 +20 46 46.5 19.7 V G96 – Mt. Lemmon Survey MPS 553607
2014 12 11.24097 05 05 22.01 +20 46 46.9 19.6 V G96 – Mt. Lemmon Survey MPS 553607
2014 12 13.29605 05 03 28.158 +20 50 31.52 20.1 w F51 – Pan-STARRS 1, Haleakala MPS 553607
2014 12 13.30865 05 03 27.438 +20 50 32.97 20.1 w F51 – Pan-STARRS 1, Haleakala MPS 553607
2014 12 13.32134 05 03 26.717 +20 50 34.47 20.1 w F51 – Pan-STARRS 1, Haleakala MPS 553607
2014 12 13.33404 05 03 25.992 +20 50 35.92 20.1 w F51 – Pan-STARRS 1, Haleakala MPS 553607
2015 01 17.18063 04 40 58.21 +21 59 32.2 20.9 V G96 – Mt. Lemmon Survey MPS 612667
2015 01 17.18523 04 40 58.15 +21 59 32.9 20.4 V G96 – Mt. Lemmon Survey MPS 612667
2015 01 17.18982 04 40 58.08 +21 59 33.1 20.7 V G96 – Mt. Lemmon Survey MPS 612667
2015 01 17.19440 04 40 58.01 +21 59 34.2 20.9 V G96 – Mt. Lemmon Survey MPS 612667
2015 01 22.35703 04 40 10.483 +22 11 45.54 21.1 w F51 – Pan-STARRS 1, Haleakala MPS 612667
2015 01 22.37096 04 40 10.415 +22 11 47.21 21.0 w F51 – Pan-STARRS 1, Haleakala MPS 612667
2015 01 22.38487 04 40 10.295 +22 11 49.52 21.1 w F51 – Pan-STARRS 1, Haleakala MPS 612667
2015 02 07.12305 04 42 25.90 +22 52 53.9 20.6 V G96 – Mt. Lemmon Survey MPS 616074
2015 02 07.13768 04 42 26.20 +22 52 56.7 20.3 V G96 – Mt. Lemmon Survey MPS 616074
2015 02 07.14499 04 42 26.31 +22 52 57.5 20.1 V G96 – Mt. Lemmon Survey MPS 616074
2016 03 29.30545 11 19 02.196 +15 48 28.23 21.5 w F51 – Pan-STARRS 1, Haleakala MPS 696036
2016 03 29.31795 11 19 01.695 +15 48 30.27 21.3 w F51 – Pan-STARRS 1, Haleakala MPS 696036
2016 03 29.33049 11 19 01.195 +15 48 32.27 21.1 w F51 – Pan-STARRS 1, Haleakala MPS 696036
2016 03 30.30256 11 18 24.102 +15 50 52.36 21.2 w F51 – Pan-STARRS 1, Haleakala MPS 696036
2016 03 30.31616 11 18 23.570 +15 50 54.34 21.3 w F51 – Pan-STARRS 1, Haleakala MPS 696036
2016 03 30.32974 11 18 23.036 +15 50 56.24 21.2 w F51 – Pan-STARRS 1, Haleakala MPS 696036
2016 04 05.31065 11 14 51.975 +16 02 04.60 21.2 w F51 – Pan-STARRS 1, Haleakala MPS 698856
2016 04 05.32172 11 14 51.600 +16 02 05.51 21.2 w F51 – Pan-STARRS 1, Haleakala MPS 698856
2016 04 05.34412 11 14 50.835 +16 02 07.43 21.2 w F51 – Pan-STARRS 1, Haleakala MPS 698856
2017 04 27.46964 15 18 45.000 -11 15 42.20 21.4 w F51 – Pan-STARRS 1, Haleakala MPS 792988
2017 04 27.48414 15 18 44.344 -11 15 40.39 21.5 w F51 – Pan-STARRS 1, Haleakala MPS 792988
2017 04 27.49867 15 18 43.715 -11 15 38.13 21.6 w F51 – Pan-STARRS 1, Haleakala MPS 792988
2017 05 27.31658 14 56 32.847 -10 20 17.84 21.6 w F51 – Pan-STARRS 1, Haleakala MPS 799358
2017 05 27.32903 14 56 32.327 -10 20 17.10 21.7 w F51 – Pan-STARRS 1, Haleakala MPS 799358
2017 05 27.34156 14 56 31.793 -10 20 16.16 21.5 w F51 – Pan-STARRS 1, Haleakala MPS 799358
2019 07 28.59942 01 05 07.553 -03 11 27.95 21.2 w F52 – Pan-STARRS 2, Haleakala MPS 1014834
2019 07 28.60921 01 05 07.829 -03 11 28.15 21.4 w F52 – Pan-STARRS 2, Haleakala MPS 1014834
2019 08 24.53569 01 10 25.470 -04 08 48.97 20.2 i F51 – Pan-STARRS 1, Haleakala MPS 1031880
2019 08 24.54991 01 10 25.359 -04 08 52.18 20.2 i F51 – Pan-STARRS 1, Haleakala MPS 1031880
2019 08 24.56417 01 10 25.246 -04 08 55.29 20.2 i F51 – Pan-STARRS 1, Haleakala MPS 1031880
2019 08 24.57837 01 10 25.128 -04 08 58.57 20.2 i F51 – Pan-STARRS 1, Haleakala MPS 1031880
2019 10 03.27112 00 50 28.93 -07 17 57.4 19.9 G G96 – Mt. Lemmon Survey MPS 1056803
2019 10 03.29241 00 50 27.91 -07 18 02.9 20.1 G G96 – Mt. Lemmon Survey MPS 1056803
2019 10 03.29756 00 50 27.67 -07 18 04.1 20.1 G G96 – Mt. Lemmon Survey MPS 1056803
2019 10 03.30271 00 50 27.41 -07 18 05.6 20.1 G G96 – Mt. Lemmon Survey MPS 1056803
2019 10 05.42494 00 48 49.213 -07 26 54.27 19.8 w F51 – Pan-STARRS 1, Haleakala MPS 1056803
2019 10 05.43668 00 48 48.646 -07 26 57.09 19.9 w F51 – Pan-STARRS 1, Haleakala MPS 1056803
2019 10 05.44842 00 48 48.074 -07 26 59.86 19.8 w F51 – Pan-STARRS 1, Haleakala MPS 1056803
2019 10 05.46016 00 48 47.506 -07 27 02.82 19.9 w F51 – Pan-STARRS 1, Haleakala MPS 1056803
2019 10 06.38517 00 48 04.720 -07 30 43.32 19.7 i F52 – Pan-STARRS 2, Haleakala MPS 1056803
2019 10 06.39683 00 48 04.155 -07 30 46.21 19.9 i F52 – Pan-STARRS 2, Haleakala MPS 1056803
2019 10 06.40848 00 48 03.599 -07 30 48.65 19.7 i F52 – Pan-STARRS 2, Haleakala MPS 1056803
2019 10 06.42022 00 48 03.007 -07 30 51.60 19.6 i F52 – Pan-STARRS 2, Haleakala MPS 1056803
2019 10 21.39530 00 36 57.267 -08 12 40.35 20.0 w F52 – Pan-STARRS 2, Haleakala MPS 1064996
2019 10 21.40754 00 36 56.741 -08 12 41.66 20.1 w F52 – Pan-STARRS 2, Haleakala MPS 1064996
2019 10 21.41975 00 36 56.234 -08 12 42.61 20.0 w F52 – Pan-STARRS 2, Haleakala MPS 1064996
2019 10 21.43194 00 36 55.717 -08 12 43.69 20.0 w F52 – Pan-STARRS 2, Haleakala MPS 1064996
2019 10 22.41573 00 36 16.297 -08 14 08.41 20.1 w F52 – Pan-STARRS 2, Haleakala MPS 1064996
2019 10 22.42731 00 36 15.822 -08 14 09.40 20.2 w F52 – Pan-STARRS 2, Haleakala MPS 1064996
2019 10 22.43888 00 36 15.330 -08 14 10.28 20.1 w F52 – Pan-STARRS 2, Haleakala MPS 1064996
2019 10 22.45049 00 36 14.857 -08 14 11.17 20.2 w F52 – Pan-STARRS 2, Haleakala MPS 1064996
2019 10 24.37659 00 35 00.166 -08 16 24.92 20.4 w F52 – Pan-STARRS 2, Haleakala MPS 1064996
2019 10 24.38896 00 34 59.675 -08 16 25.73 20.3 w F52 – Pan-STARRS 2, Haleakala MPS 1064996
2019 10 24.40132 00 34 59.175 -08 16 26.40 20.2 w F52 – Pan-STARRS 2, Haleakala MPS 1064996
2019 10 24.41375 00 34 58.689 -08 16 27.22 20.2 w F52 – Pan-STARRS 2, Haleakala MPS 1064996
2019 10 29.23694 00 32 07.15 -08 18 54.1 20.5 G G96 – Mt. Lemmon Survey MPS 1074950
2019 10 29.24256 00 32 06.96 -08 18 54.4 20.4 G G96 – Mt. Lemmon Survey MPS 1074950
2019 10 29.24816 00 32 06.76 -08 18 54.2 20.5 G G96 – Mt. Lemmon Survey MPS 1074950
2019 10 29.25377 00 32 06.59 -08 18 54.4 20.3 G G96 – Mt. Lemmon Survey MPS 1074950
2019 10 31.21967 00 31 03.89 -08 18 35.8 20.1 G G96 – Mt. Lemmon Survey MPS 1074950
2019 10 31.22486 00 31 03.75 -08 18 35.3 20.3 G G96 – Mt. Lemmon Survey MPS 1074950
2019 10 31.23007 00 31 03.57 -08 18 35.5 20.4 G G96 – Mt. Lemmon Survey MPS 1074950
2019 10 31.23527 00 31 03.41 -08 18 35.2 20.4 G G96 – Mt. Lemmon Survey MPS 1074950
2019 12 24.22864 00 36 28.718 -03 57 28.32 21.2 w F51 – Pan-STARRS 1, Haleakala MPS 1105518
2019 12 24.23997 00 36 29.169 -03 57 22.58 21.1 w F51 – Pan-STARRS 1, Haleakala MPS 1105518
2019 12 24.25144 00 36 29.622 -03 57 16.98 21.1 w F51 – Pan-STARRS 1, Haleakala MPS 1105518
2019 12 24.26278 00 36 30.066 -03 57 11.36 21.1 w F51 – Pan-STARRS 1, Haleakala MPS 1105518
2020 01 27.22779 01 08 38.817 +01 19 50.27 21.7 w F51 – Pan-STARRS 1, Haleakala MPS 1143966
2020 01 27.23343 01 08 39.210 +01 19 53.57 21.5 w F51 – Pan-STARRS 1, Haleakala MPS 1143966
2020 01 27.23909 01 08 39.593 +01 19 56.79 21.6 w F51 – Pan-STARRS 1, Haleakala MPS 1143966
2020 10 14.475496 08 16 04.95 +21 33 04.0 21.50 G G96 – Mt. Lemmon Survey MPS 1284825
2020 10 14.480616 08 16 05.29 +21 33 01.9 21.49 G G96 – Mt. Lemmon Survey MPS 1284825
